Weather reports worldwide

Advertisment
Ciudad Real, Spain (8348): temperature & dewpoint: 10.01.2018 20:00:00 - 16.01.2018 20:00:00 (CET)Ciudad Real, Spain (8348): wind speed: 10.01.2018 20:00:00 - 16.01.2018 20:00:00 (CET)Ciudad Real, Spain (8348): wind direction: 10.01.2018 20:00:00 - 16.01.2018 20:00:00 (CET)Ciudad Real, Spain (8348): reduced air pressure: 10.01.2018 20:00:00 - 16.01.2018 20:00:00 (CET)Ciudad Real, Spain (8348): visibility: 10.01.2018 20:00:00 - 16.01.2018 20:00:00 (CET)Ciudad Real, Spain (8348): precipitation: 10.01.2018 20:00:00 - 16.01.2018 20:00:00 (CET)
Date & Time tt [°C] td [°C] ff [km/h] ff [kn] dd ppp [hPa] vv [km] rr [mm]
16.01.2018 20:00:00 9,2 4,4 5 3 W 1028,9 20 0,0
16.01.2018 19:00:00 10,4 4,5 5 3 W 1028,5 15 -
16.01.2018 18:00:00 11,8 4,7 9 5 WSW 1027,8 20 0,0
16.01.2018 17:00:00 13,0 4,7 11 6 WSW 1027,5 20 0,0
16.01.2018 16:00:00 13,7 5,1 8 4 WSW 1027,5 20 -
16.01.2018 15:00:00 13,5 4,6 8 4 W 1027,9 20 0,0
16.01.2018 14:00:00 12,2 3,7 9 5 W 1029,1 20 0,0
16.01.2018 13:00:00 11,5 3,8 4 2 WSW 1030,6 20 -
16.01.2018 12:00:00 9,3 3,1 8 4 W 1032,0 20 0,0
16.01.2018 11:00:00 6,9 2,4 5 3 W 1032,4 20 0,0
16.01.2018 10:00:00 4,8 2,0 4 2 W 1032,7 20 -
16.01.2018 09:00:00 2,5 1,5 4 2 SW 1032,6 20 0,0
16.01.2018 08:00:00 2,0 1,1 4 2 SSW 1032,4 20 0,0
16.01.2018 07:00:00 1,9 1,3 5 3 S 1032,0 20 -
16.01.2018 06:00:00 - - - - - - - -
16.01.2018 05:00:00 - - - - - - - -
16.01.2018 04:00:00 - - - - - - - -
16.01.2018 03:00:00 - - - - - - - -
16.01.2018 02:00:00 - - - - - - - -
16.01.2018 01:00:00 - - - - - - - -
16.01.2018 00:00:00 - - - - - - - -
15.01.2018 23:00:00 - - - - - - - -
15.01.2018 22:00:00 - - - - - - - -
15.01.2018 21:00:00 - - - - - - - -
15.01.2018 20:00:00 - - - - - - - -
15.01.2018 19:00:00 7,4 3,1 4 2 SSW 1029,8 15 -
15.01.2018 18:00:00 8,3 2,7 2 1 WSW 1028,5 20 0,0
15.01.2018 17:00:00 9,2 2,1 2 1 N 1027,8 19 0,0
15.01.2018 16:00:00 9,6 2,7 2 1 W 1027,5 20 -
15.01.2018 15:00:00 10,0 3,0 5 3 ESE 1027,1 20 0,0
15.01.2018 14:00:00 8,9 3,1 4 2 ENE 1027,5 20 0,0
15.01.2018 13:00:00 7,6 2,5 5 3 E 1028,7 20 -
15.01.2018 12:00:00 5,8 2,1 4 2 NE 1029,6 20 0,0
15.01.2018 11:00:00 3,7 1,9 2 1 E 1029,8 20 0,0
15.01.2018 10:00:00 1,1 1,1 4 2 E 1029,4 10 -
15.01.2018 09:00:00 -0,7 -0,7 2 1 S 1029,2 8 0,0
15.01.2018 08:00:00 -0,6 -0,7 4 2 SSE 1028,6 10 0,0
15.01.2018 07:00:00 -0,4 -0,5 2 1 SSE 1027,4 10 -
15.01.2018 06:00:00 -0,3 -0,6 4 2 NNW 1026,9 11 0,0
15.01.2018 05:00:00 0,5 -0,1 2 1 NNW 1026,3 9 0,0
15.01.2018 04:00:00 1,5 0,8 4 2 NNW 1025,4 19 -
15.01.2018 03:00:00 1,6 1,0 4 2 NNW 1024,9 19 0,0
15.01.2018 02:00:00 1,9 1,3 2 1 N 1024,9 19 0,0
15.01.2018 01:00:00 2,2 1,8 5 3 NNW 1025,1 20 -
15.01.2018 00:00:00 2,6 2,2 5 3 NW 1024,9 20 0,0
14.01.2018 23:00:00 3,3 2,6 4 2 NNW 1024,0 20 0,0
14.01.2018 22:00:00 3,9 3,2 5 3 NNW 1023,4 20 -
14.01.2018 21:00:00 4,1 3,4 5 3 NNW 1022,5 20 0,0
14.01.2018 20:00:00 4,2 3,5 4 2 ESE 1022,0 17 0,4
14.01.2018 19:00:00 4,7 3,7 8 4 NE 1021,2 20 -
14.01.2018 18:00:00 5,5 3,3 5 3 NNW 1020,3 18 0,0
14.01.2018 17:00:00 5,7 3,5 4 2 ESE 1019,6 20 1,0
14.01.2018 16:00:00 6,3 2,9 13 7 NW 1019,1 20 -
14.01.2018 15:00:00 7,6 3,4 8 4 NW 1018,5 20 0,0
14.01.2018 14:00:00 7,7 3,4 9 5 NW 1018,9 20 0,0
14.01.2018 13:00:00 7,5 4,1 5 3 WNW 1019,8 20 -
14.01.2018 12:00:00 7,8 4,6 9 5 W 1020,6 20 0,0
14.01.2018 11:00:00 6,4 5,0 8 4 W 1021,0 20 0,2
14.01.2018 10:00:00 5,0 4,4 5 3 WSW 1021,1 3,0 -
14.01.2018 09:00:00 4,8 4,2 5 3 SSW 1020,8 20 0,2
14.01.2018 08:00:00 4,9 4,3 5 3 SW 1020,6 20 0,0
14.01.2018 07:00:00 5,0 4,3 5 3 WSW 1020,5 20 -
14.01.2018 06:00:00 5,1 4,2 5 3 SW 1020,6 20 0,0
14.01.2018 05:00:00 5,2 4,2 8 4 SW 1021,1 19 0,0
14.01.2018 04:00:00 5,1 3,9 8 4 WSW 1021,5 20 -
14.01.2018 03:00:00 5,2 4,0 8 4 SW 1021,1 20 0,0
14.01.2018 02:00:00 5,4 4,4 9 5 WSW 1021,6 20 0,0
14.01.2018 01:00:00 5,5 4,3 9 5 WSW 1022,0 20 -
14.01.2018 00:00:00 5,6 4,2 8 4 WSW 1022,1 20 0,0
13.01.2018 23:00:00 5,6 4,1 8 4 WNW 1022,0 20 0,0
13.01.2018 22:00:00 5,5 4,0 8 4 W 1021,9 20 -
13.01.2018 21:00:00 5,7 4,0 9 5 WSW 1021,1 20 0,0
13.01.2018 20:00:00 6,8 5,3 11 6 W 1020,1 20 0,0
13.01.2018 19:00:00 7,0 5,6 13 7 WSW 1019,4 18 -
13.01.2018 18:00:00 7,2 5,8 15 8 WSW 1018,7 19 0,0
13.01.2018 17:00:00 7,2 5,8 13 7 WSW 1018,4 16 0,0
13.01.2018 16:00:00 6,9 4,0 8 4 S 1018,3 20 -
13.01.2018 15:00:00 7,3 4,1 9 5 SW 1018,9 4,5 0,4
13.01.2018 14:00:00 8,5 2,3 9 5 WSW 1019,2 20 0,0
13.01.2018 13:00:00 7,4 3,3 5 3 S 1020,3 18 -
13.01.2018 12:00:00 5,1 2,8 4 2 E 1021,7 18 0,0
13.01.2018 11:00:00 3,6 2,4 2 1 NNE 1022,3 18 0,0
13.01.2018 10:00:00 2,2 1,8 4 2 ENE 1022,0 15 -
13.01.2018 09:00:00 1,6 1,2 2 1 NNE 1022,4 13 0,0
13.01.2018 08:00:00 1,7 1,1 2 1 N 1022,5 13 0,0
13.01.2018 07:00:00 1,9 1,3 2 1 SE 1022,2 16 -
13.01.2018 06:00:00 1,8 1,2 2 1 NE 1022,8 11 0,0
13.01.2018 05:00:00 2,3 1,6 4 2 E 1022,7 14 0,0
13.01.2018 04:00:00 2,4 1,8 2 1 E 1023,3 12 -
13.01.2018 03:00:00 2,5 1,9 4 2 WNW 1024,2 15 0,0
13.01.2018 02:00:00 2,2 1,6 4 2 ESE 1024,4 10 0,0
13.01.2018 01:00:00 2,4 1,7 2 1 SE 1025,3 12 -
13.01.2018 00:00:00 2,9 1,6 2 1 E 1025,8 15 0,0
12.01.2018 23:00:00 3,9 2,1 4 2 NW 1026,0 16 0,0
12.01.2018 22:00:00 5,1 2,8 2 1 S 1025,7 15 -
12.01.2018 21:00:00 5,8 2,8 0 0 N 1025,6 17 0,0
12.01.2018 20:00:00 6,8 2,9 2 1 E 1025,4 19 0,0
12.01.2018 19:00:00 7,8 2,9 2 1 E 1025,0 20 -
12.01.2018 18:00:00 9,2 2,1 2 1 NNE 1024,8 20 0,0
12.01.2018 17:00:00 10,4 1,0 2 1 W 1024,7 20 0,0
12.01.2018 16:00:00 10,6 0,3 4 2 ESE 1024,5 20 -
12.01.2018 15:00:00 10,4 1,2 4 2 ESE 1024,9 20 0,0
12.01.2018 14:00:00 10,0 1,1 5 3 SE 1025,7 20 0,0
12.01.2018 13:00:00 9,0 2,1 8 4 ESE 1027,2 25 -
12.01.2018 12:00:00 5,9 2,0 4 2 W 1029,2 19 0,0
12.01.2018 11:00:00 2,8 1,0 2 1 E 1029,8 11 0,0
12.01.2018 10:00:00 0,3 0,0 4 2 ENE 1030,1 20 -
12.01.2018 09:00:00 -1,5 -1,8 2 1 N 1030,2 16 0,0
12.01.2018 08:00:00 -1,3 -1,9 2 1 E 1029,9 19 0,0
12.01.2018 07:00:00 -0,7 -1,3 4 2 W 1029,5 25 -
12.01.2018 06:00:00 0,2 -1,1 2 1 WSW 1028,9 20 0,0
12.01.2018 05:00:00 1,7 -0,1 4 2 WSW 1028,6 20 0,0
12.01.2018 04:00:00 2,2 0,3 5 3 W 1028,9 20 -
12.01.2018 03:00:00 2,4 0,5 5 3 WSW 1029,0 20 0,0
12.01.2018 02:00:00 2,6 0,5 8 4 WSW 1028,9 20 0,0
12.01.2018 01:00:00 3,0 0,6 5 3 W 1029,0 20 -
12.01.2018 00:00:00 3,6 0,6 5 3 WSW 1029,1 20 0,0
11.01.2018 23:00:00 3,8 0,7 4 2 W 1028,8 20 0,0
11.01.2018 22:00:00 4,4 1,1 8 4 WSW 1028,2 20 -
11.01.2018 21:00:00 5,3 1,0 5 3 WSW 1027,8 20 0,0
11.01.2018 20:00:00 6,1 1,0 4 2 W 1027,4 20 0,0
11.01.2018 19:00:00 7,0 1,7 9 5 WNW 1026,4 30 -
11.01.2018 18:00:00 8,3 1,4 11 6 WNW 1025,1 20 0,0
11.01.2018 17:00:00 8,9 2,2 9 5 WNW 1024,6 20 0,0
11.01.2018 16:00:00 9,9 2,3 15 8 WNW 1024,3 30 -
11.01.2018 15:00:00 8,7 3,1 5 3 WNW 1024,5 20 0,0
11.01.2018 14:00:00 9,1 3,5 13 7 WNW 1024,6 20 0,0
11.01.2018 13:00:00 7,9 5,0 15 8 WNW 1025,5 30 -
11.01.2018 12:00:00 7,0 5,1 8 4 W 1026,3 19 0,0
11.01.2018 11:00:00 6,6 5,1 13 7 WSW 1026,4 18 0,0
11.01.2018 10:00:00 5,5 4,5 11 6 WSW 1026,1 20 -
11.01.2018 09:00:00 4,4 3,7 9 5 W 1026,2 17 0,0
11.01.2018 08:00:00 3,7 3,1 8 4 SW 1025,9 18 0,0
11.01.2018 07:00:00 3,4 2,8 13 7 WSW 1025,5 25 -
11.01.2018 06:00:00 3,6 2,9 13 7 WSW 1025,5 19 0,0
11.01.2018 05:00:00 3,9 2,6 9 5 WSW 1025,8 20 0,0
11.01.2018 04:00:00 4,3 2,8 8 4 W 1026,1 20 -
11.01.2018 03:00:00 4,9 3,1 15 8 WSW 1025,7 20 0,0
11.01.2018 02:00:00 5,7 3,9 8 4 WNW 1025,3 20 0,0
11.01.2018 01:00:00 6,0 4,5 9 5 W 1025,0 19 -
11.01.2018 00:00:00 6,5 5,0 8 4 WSW 1024,5 19 0,0
10.01.2018 23:00:00 7,1 5,4 8 4 W 1023,8 19 0,0
10.01.2018 22:00:00 7,8 5,8 9 5 W 1023,0 20 -
10.01.2018 21:00:00 8,6 6,2 13 7 W 1022,4 20 0,0
10.01.2018 20:00:00 10,0 8,1 18 10 W 1020,9 20 0,0

tt = temperature
td = dewpoint
ff = wind speed
dd = wind direction
ppp = reduced air pressure
vv = visibility
rr = precipitation

Next stations